{"data":{"norad_id":68011,"epoch":"2026-09-19T16:12:47.341152Z","epoch_age_seconds":130899,"freshness":"FRESH","line1":"1 68011U 26039AB  26262.67554793  .00014600  00000+0  53878-3 0  9994","line2":"2 68011  43.0005  33.1854 0000744 278.0473  82.0295 15.27595236 31375","mean_motion":15.27595236,"eccentricity":7.44e-5,"inclination_deg":43.0005,"raan_deg":33.1854,"arg_perigee_deg":278.0473,"mean_anomaly_deg":82.0295,"bstar":0.00053878,"rev_number":3137,"period_min":94.265808511594,"perigee_km":482.49300550243,"apogee_km":483.51394320501,"semimajor_km":6861.1404743537,"source":"CELESTRAK","updated_at":"2026-09-20T09:00:43.740192Z"}}